Time,TemperatureF,DewpointF,PressureIn,WindDirection,WindDirectionDegrees,WindSpeedMPH,WindSpeedGustMPH,Humidity,HourlyPrecipIn,Conditions,Clouds,dailyrainin,SoftwareType,DateUTC
2013-12-10 00:00:00,11.2,6.5,29.96,SW,226,14.0,15.0,81,0.00,,,0.00,Wunderground v.1.15,2013-12-10 06:00:00,
2013-12-10 00:02:00,11.2,6.5,29.96,SW,229,14.0,15.0,81,0.00,,,0.00,Wunderground v.1.15,2013-12-10 06:02:00,
2013-12-10 00:06:00,11.3,6.6,29.95,WSW,240,14.0,19.0,81,0.00,,,0.00,Wunderground v.1.15,2013-12-10 06:06:00,
2013-12-10 00:08:00,11.3,6.6,29.95,SW,215,14.0,19.0,81,0.00,,,0.00,Wunderground v.1.15,2013-12-10 06:08:00,
2013-12-10 00:10:00,11.3,6.6,29.95,SW,222,14.0,15.0,81,0.00,,,0.00,Wunderground v.1.15,2013-12-10 06:10:00,
2013-12-10 00:12:00,11.4,6.7,29.95,WSW,240,13.0,15.0,81,0.00,,,0.00,Wunderground v.1.15,2013-12-10 06:12:00,
2013-12-10 00:14:00,11.5,6.8,29.95,SSW,210,14.0,15.0,81,0.00,,,0.00,Wunderground v.1.15,2013-12-10 06:14:00,
2013-12-10 00:17:00,11.6,6.9,29.95,WSW,239,14.0,15.0,81,0.00,,,0.00,Wunderground v.1.15,2013-12-10 06:17:00,
2013-12-10 00:20:00,11.8,7.1,29.95,SW,218,14.0,14.0,81,0.00,,,0.00,Wunderground v.1.15,2013-12-10 06:20:00,
2013-12-10 00:22:00,11.9,7.2,29.95,SW,236,14.0,15.0,81,0.00,,,0.00,Wunderground v.1.15,2013-12-10 06:22:00,
2013-12-10 00:26:00,12.1,7.4,29.94,WSW,245,14.0,16.0,81,0.00,,,0.00,Wunderground v.1.15,2013-12-10 06:26:00,
2013-12-10 00:28:00,12.2,7.5,29.94,SW,233,14.0,16.0,81,0.00,,,0.00,Wunderground v.1.15,2013-12-10 06:28:00,
2013-12-10 00:30:00,12.1,7.1,29.94,WSW,245,13.0,13.0,80,0.00,,,0.00,Wunderground v.1.15,2013-12-10 06:30:00,
2013-12-10 00:32:00,12.1,7.1,29.94,SW,225,13.0,13.0,80,0.00,,,0.00,Wunderground v.1.15,2013-12-10 06:32:00,
2013-12-10 00:37:00,12.1,7.1,29.94,SW,228,12.0,15.0,80,0.00,,,0.00,Wunderground v.1.15,2013-12-10 06:37:00,
2013-12-10 00:39:00,12.1,7.4,29.94,WSW,243,12.0,12.0,81,0.00,,,0.00,Wunderground v.1.15,2013-12-10 06:39:00,
2013-12-10 00:42:00,12.1,7.4,29.94,SW,214,12.0,12.0,81,0.00,,,0.00,Wunderground v.1.15,2013-12-10 06:42:00,
2013-12-10 00:44:00,12.1,7.4,29.94,WSW,238,11.0,12.0,81,0.00,,,0.00,Wunderground v.1.15,2013-12-10 06:44:00,
2013-12-10 00:46:00,12.2,7.5,29.94,SW,232,11.0,12.0,81,0.00,,,0.00,Wunderground v.1.15,2013-12-10 06:46:00,
2013-12-10 00:48:00,12.4,7.7,29.94,SSW,208,12.0,12.0,81,0.00,,,0.00,Wunderground v.1.15,2013-12-10 06:48:00,
2013-12-10 00:50:00,12.6,8.1,29.93,WSW,243,12.0,17.0,82,0.00,,,0.00,Wunderground v.1.15,2013-12-10 06:50:00,
2013-12-10 00:54:00,12.9,8.2,29.93,SW,236,13.0,17.0,81,0.00,,,0.00,Wunderground v.1.15,2013-12-10 06:54:00,
2013-12-10 00:56:00,13.0,8.3,29.93,SSW,212,13.0,17.0,81,0.00,,,0.00,Wunderground v.1.15,2013-12-10 06:56:00,
2013-12-10 00:59:00,13.2,8.5,29.93,West,259,13.0,18.0,81,0.00,,,0.00,Wunderground v.1.15,2013-12-10 06:59:00,
2013-12-10 01:01:00,13.2,8.5,29.93,SW,215,13.0,23.0,81,0.00,,,0.00,Wunderground v.1.15,2013-12-10 07:01:00,
2013-12-10 01:04:00,13.3,8.3,29.93,SW,215,13.0,23.0,80,0.00,,,0.00,Wunderground v.1.15,2013-12-10 07:04:00,
2013-12-10 01:08:00,13.3,8.6,29.93,SW,219,13.0,23.0,81,0.00,,,0.00,Wunderground v.1.15,2013-12-10 07:08:00,
2013-12-10 01:10:00,13.4,8.7,29.93,SW,228,12.0,23.0,81,0.00,,,0.00,Wunderground v.1.15,2013-12-10 07:10:00,
2013-12-10 01:12:00,13.6,8.9,29.92,SW,220,12.0,23.0,81,0.00,,,0.00,Wunderground v.1.15,2013-12-10 07:12:00,
2013-12-10 01:16:00,13.8,9.0,29.93,WSW,239,13.0,23.0,81,0.00,,,0.00,Wunderground v.1.15,2013-12-10 07:16:00,
2013-12-10 01:18:00,13.9,9.1,29.93,WSW,243,13.0,23.0,81,0.00,,,0.00,Wunderground v.1.15,2013-12-10 07:18:00,
2013-12-10 01:19:00,14.0,9.2,29.92,SW,228,13.0,13.0,81,0.00,,,0.00,Wunderground v.1.15,2013-12-10 07:19:00,
2013-12-10 01:21:00,14.1,9.1,29.92,SW,232,13.0,23.0,80,0.00,,,0.00,Wunderground v.1.15,2013-12-10 07:21:00,
2013-12-10 01:26:00,14.2,9.4,29.92,WSW,238,13.0,23.0,81,0.00,,,0.00,Wunderground v.1.15,2013-12-10 07:26:00,
2013-12-10 01:28:00,14.3,9.5,29.92,SW,233,13.0,23.0,81,0.00,,,0.00,Wunderground v.1.15,2013-12-10 07:28:00,
2013-12-10 01:30:00,14.3,9.5,29.92,SW,228,14.0,14.0,81,0.00,,,0.00,Wunderground v.1.15,2013-12-10 07:30:00,
2013-12-10 01:32:00,14.4,9.6,29.92,WSW,240,14.0,23.0,81,0.00,,,0.00,Wunderground v.1.15,2013-12-10 07:32:00,
2013-12-10 01:36:00,14.6,9.8,29.92,SW,228,14.0,23.0,81,0.00,,,0.00,Wunderground v.1.15,2013-12-10 07:36:00,
2013-12-10 01:40:00,14.9,10.1,29.92,SW,225,14.0,23.0,81,0.00,,,0.00,Wunderground v.1.15,2013-12-10 07:40:00,
2013-12-10 01:43:00,15.1,10.6,29.92,West,260,13.0,23.0,82,0.00,,,0.00,Wunderground v.1.15,2013-12-10 07:43:00,
2013-12-10 01:46:00,15.3,10.8,29.92,WSW,252,14.0,23.0,82,0.00,,,0.00,Wunderground v.1.15,2013-12-10 07:46:00,
2013-12-10 01:48:00,15.4,10.9,29.92,SSW,210,13.0,23.0,82,0.00,,,0.00,Wunderground v.1.15,2013-12-10 07:48:00,
2013-12-10 01:50:00,15.4,11.2,29.92,WSW,244,13.0,23.0,83,0.00,,,0.00,Wunderground v.1.15,2013-12-10 07:50:00,
2013-12-10 01:54:00,15.4,11.4,29.92,SW,231,13.0,23.0,84,0.00,,,0.00,Wunderground v.1.15,2013-12-10 07:54:00,
2013-12-10 01:56:00,15.4,11.4,29.92,WSW,257,12.0,23.0,84,0.00,,,0.00,Wunderground v.1.15,2013-12-10 07:56:00,
2013-12-10 02:02:00,15.4,12.0,29.92,WSW,256,13.0,23.0,86,0.00,,,0.00,Wunderground v.1.15,2013-12-10 08:02:00,
2013-12-10 02:03:00,15.4,12.0,29.92,SW,218,13.0,23.0,86,0.00,,,0.00,Wunderground v.1.15,2013-12-10 08:03:00,
2013-12-10 02:08:00,15.4,12.2,29.92,WSW,245,13.0,23.0,87,0.00,,,0.00,Wunderground v.1.15,2013-12-10 08:08:00,
2013-12-10 02:10:00,15.3,12.1,29.92,WSW,242,12.0,23.0,87,0.00,,,0.00,Wunderground v.1.15,2013-12-10 08:10:00,
2013-12-10 02:12:00,15.3,12.4,29.92,SW,222,12.0,23.0,88,0.00,,,0.00,Wunderground v.1.15,2013-12-10 08:12:00,
2013-12-10 02:16:00,15.2,12.3,29.92,SW,214,12.0,23.0,88,0.00,,,0.00,Wunderground v.1.15,2013-12-10 08:16:00,
2013-12-10 02:18:00,15.1,12.2,29.92,WSW,239,12.0,23.0,88,0.00,,,0.00,Wunderground v.1.15,2013-12-10 08:18:00,
2013-12-10 02:22:00,15.0,12.1,29.93,WSW,239,11.0,23.0,88,0.00,,,0.00,Wunderground v.1.15,2013-12-10 08:22:00,
2013-12-10 02:23:00,15.0,11.8,29.93,SW,215,12.0,23.0,87,0.00,,,0.00,Wunderground v.1.15,2013-12-10 08:23:00,
2013-12-10 02:28:00,14.8,11.6,29.93,West,270,11.0,23.0,87,0.00,,,0.00,Wunderground v.1.15,2013-12-10 08:28:00,
2013-12-10 02:30:00,14.9,11.7,29.93,WSW,245,10.0,10.0,87,0.00,,,0.00,Wunderground v.1.15,2013-12-10 08:30:00,
2013-12-10 02:32:00,14.9,11.7,29.93,West,263,10.0,23.0,87,0.00,,,0.00,Wunderground v.1.15,2013-12-10 08:32:00,
2013-12-10 02:34:00,15.0,11.8,29.93,SW,224,9.0,23.0,87,0.00,,,0.00,Wunderground v.1.15,2013-12-10 08:34:00,
2013-12-10 02:36:00,15.2,12.0,29.93,WSW,239,8.0,23.0,87,0.00,,,0.00,Wunderground v.1.15,2013-12-10 08:36:00,
2013-12-10 02:38:00,15.3,12.1,29.93,WSW,242,8.0,23.0,87,0.00,,,0.00,Wunderground v.1.15,2013-12-10 08:38:00,
2013-12-10 02:40:00,15.4,12.0,29.93,WSW,253,8.0,23.0,86,0.00,,,0.00,Wunderground v.1.15,2013-12-10 08:40:00,
2013-12-10 02:44:00,15.6,12.4,29.93,NW,304,9.0,23.0,87,0.00,,,0.00,Wunderground v.1.15,2013-12-10 08:44:00,
2013-12-10 02:47:00,16.3,13.4,29.93,West,268,10.0,23.0,88,0.00,,,0.00,Wunderground v.1.15,2013-12-10 08:47:00,
2013-12-10 02:52:00,16.9,14.0,29.94,WSW,257,11.0,23.0,88,0.00,,,0.00,Wunderground v.1.15,2013-12-10 08:52:00,
2013-12-10 02:54:00,17.0,14.1,29.94,West,264,12.0,23.0,88,0.00,,,0.00,Wunderground v.1.15,2013-12-10 08:54:00,
2013-12-10 02:58:00,17.1,14.2,29.93,West,262,12.0,23.0,88,0.00,,,0.00,Wunderground v.1.15,2013-12-10 08:58:00,
2013-12-10 03:00:00,17.1,14.2,29.94,WSW,253,12.0,23.0,88,0.00,,,0.00,Wunderground v.1.15,2013-12-10 09:00:00,
2013-12-10 03:04:00,17.2,14.3,29.94,West,274,11.0,23.0,88,0.00,,,0.00,Wunderground v.1.15,2013-12-10 09:04:00,
2013-12-10 03:09:00,17.7,14.8,29.94,WNW,285,12.0,23.0,88,0.00,,,0.00,Wunderground v.1.15,2013-12-10 09:09:00,
2013-12-10 03:12:00,17.9,14.7,29.94,West,275,13.0,23.0,87,0.00,,,0.00,Wunderground v.1.15,2013-12-10 09:12:00,
2013-12-10 03:16:00,17.8,14.3,29.95,WNW,294,14.0,23.0,86,0.00,,,0.00,Wunderground v.1.15,2013-12-10 09:16:00,
2013-12-10 03:18:00,17.7,14.0,29.95,WNW,295,14.0,23.0,85,0.00,,,0.00,Wunderground v.1.15,2013-12-10 09:18:00,
2013-12-10 03:20:00,17.6,13.9,29.95,WNW,288,13.0,23.0,85,0.00,,,0.00,Wunderground v.1.15,2013-12-10 09:20:00,
2013-12-10 03:22:00,17.5,13.8,29.95,WNW,293,13.0,23.0,85,0.00,,,0.00,Wunderground v.1.15,2013-12-10 09:22:00,
2013-12-10 03:26:00,17.3,13.3,29.95,WNW,285,13.0,23.0,84,0.00,,,0.00,Wunderground v.1.15,2013-12-10 09:26:00,
2013-12-10 03:27:00,17.1,13.1,29.95,WNW,288,13.0,23.0,84,0.00,,,0.00,Wunderground v.1.15,2013-12-10 09:27:00,
2013-12-10 03:32:00,16.7,12.4,29.96,NW,312,13.0,23.0,83,0.00,,,0.00,Wunderground v.1.15,2013-12-10 09:32:00,
2013-12-10 03:34:00,16.4,12.4,29.96,WNW,283,13.0,23.0,84,0.00,,,0.00,Wunderground v.1.15,2013-12-10 09:34:00,
2013-12-10 03:38:00,16.0,12.0,29.96,WNW,302,12.0,23.0,84,0.00,,,0.00,Wunderground v.1.15,2013-12-10 09:38:00,
2013-12-10 03:40:00,15.9,11.9,29.96,WSW,257,12.0,23.0,84,0.00,,,0.00,Wunderground v.1.15,2013-12-10 09:40:00,
2013-12-10 03:44:00,15.6,11.9,29.97,WNW,283,13.0,23.0,85,0.00,,,0.00,Wunderground v.1.15,2013-12-10 09:44:00,
2013-12-10 03:48:00,15.3,11.6,29.97,NW,311,13.0,23.0,85,0.00,,,0.00,Wunderground v.1.15,2013-12-10 09:48:00,
2013-12-10 03:54:00,15.0,11.3,29.98,West,280,13.0,19.0,85,0.00,,,0.00,Wunderground v.1.15,2013-12-10 09:54:00,
2013-12-10 03:56:00,14.9,11.2,29.98,WNW,283,13.0,23.0,85,0.00,,,0.00,Wunderground v.1.15,2013-12-10 09:56:00,
2013-12-10 04:00:00,14.7,11.0,29.98,WNW,291,13.0,23.0,85,0.00,,,0.00,Wunderground v.1.15,2013-12-10 10:00:00,
2013-12-10 04:02:00,14.4,10.4,29.98,WNW,303,14.0,23.0,84,0.00,,,0.00,Wunderground v.1.15,2013-12-10 10:02:00,
2013-12-10 04:04:00,14.2,10.0,29.98,WNW,301,15.0,23.0,83,0.00,,,0.00,Wunderground v.1.15,2013-12-10 10:04:00,
2013-12-10 04:06:00,13.9,9.4,29.98,West,275,15.0,23.0,82,0.00,,,0.00,Wunderground v.1.15,2013-12-10 10:06:00,
2013-12-10 04:10:00,13.3,8.8,29.99,WNW,291,16.0,16.0,82,0.00,,,0.00,Wunderground v.1.15,2013-12-10 10:10:00,
2013-12-10 04:14:00,13.0,8.5,29.99,WNW,290,15.0,23.0,82,0.00,,,0.00,Wunderground v.1.15,2013-12-10 10:14:00,
2013-12-10 04:18:00,12.8,8.3,29.99,WNW,300,14.0,23.0,82,0.00,,,0.00,Wunderground v.1.15,2013-12-10 10:18:00,
2013-12-10 04:22:00,12.6,7.9,29.99,WNW,298,15.0,23.0,81,0.00,,,0.00,Wunderground v.1.15,2013-12-10 10:22:00,
2013-12-10 04:24:00,12.4,7.7,29.99,WNW,297,15.0,23.0,81,0.00,,,0.00,Wunderground v.1.15,2013-12-10 10:24:00,
2013-12-10 04:26:00,12.3,7.6,29.99,WNW,297,15.0,23.0,81,0.00,,,0.00,Wunderground v.1.15,2013-12-10 10:26:00,
2013-12-10 04:30:00,12.0,7.0,29.99,WNW,298,16.0,25.0,80,0.00,,,0.00,Wunderground v.1.15,2013-12-10 10:30:00,
2013-12-10 04:32:00,11.8,6.8,29.99,WNW,298,17.0,25.0,80,0.00,,,0.00,Wunderground v.1.15,2013-12-10 10:32:00,
2013-12-10 04:34:00,11.5,6.5,30.00,WNW,283,17.0,25.0,80,0.00,,,0.00,Wunderground v.1.15,2013-12-10 10:34:00,
2013-12-10 04:38:00,11.1,6.1,30.00,WNW,293,18.0,25.0,80,0.00,,,0.00,Wunderground v.1.15,2013-12-10 10:38:00,
2013-12-10 04:42:00,10.6,5.6,30.00,WNW,298,17.0,24.0,80,0.00,,,0.00,Wunderground v.1.15,2013-12-10 10:42:00,
2013-12-10 04:44:00,10.4,5.5,30.00,WNW,293,17.0,24.0,80,0.00,,,0.00,Wunderground v.1.15,2013-12-10 10:44:00,
2013-12-10 04:46:00,10.2,5.3,30.00,West,273,17.0,24.0,80,0.00,,,0.00,Wunderground v.1.15,2013-12-10 10:46:00,
2013-12-10 04:48:00,9.9,5.2,30.01,NNW,329,16.0,24.0,81,0.00,,,0.00,Wunderground v.1.15,2013-12-10 10:48:00,
2013-12-10 04:50:00,9.8,4.9,30.01,NW,314,17.0,17.0,80,0.00,,,0.00,Wunderground v.1.15,2013-12-10 10:50:00,
2013-12-10 04:52:00,9.6,4.7,30.01,NW,308,16.0,23.0,80,0.00,,,0.00,Wunderground v.1.15,2013-12-10 10:52:00,
2013-12-10 04:54:00,9.5,4.6,30.01,NW,307,15.0,23.0,80,0.00,,,0.00,Wunderground v.1.15,2013-12-10 10:54:00,
2013-12-10 04:56:00,9.3,4.4,30.02,WNW,285,16.0,23.0,80,0.00,,,0.00,Wunderground v.1.15,2013-12-10 10:56:00,
2013-12-10 05:00:00,9.1,4.2,30.02,NW,305,15.0,23.0,80,0.00,,,0.00,Wunderground v.1.15,2013-12-10 11:00:00,
2013-12-10 05:06:00,8.9,4.3,30.03,NNW,334,15.0,23.0,81,0.00,,,0.00,Wunderground v.1.15,2013-12-10 11:06:00,
2013-12-10 05:08:00,8.9,4.3,30.03,WNW,293,15.0,23.0,81,0.00,,,0.00,Wunderground v.1.15,2013-12-10 11:08:00,
2013-12-10 05:12:00,8.7,4.3,30.03,WNW,290,14.0,16.0,82,0.00,,,0.00,Wunderground v.1.15,2013-12-10 11:12:00,
2013-12-10 05:14:00,8.6,4.2,30.03,WNW,295,14.0,17.0,82,0.00,,,0.00,Wunderground v.1.15,2013-12-10 11:14:00,
2013-12-10 05:16:00,8.5,4.1,30.03,WNW,291,14.0,18.0,82,0.00,,,0.00,Wunderground v.1.15,2013-12-10 11:16:00,
2013-12-10 05:22:00,8.3,3.7,30.03,WNW,288,15.0,23.0,81,0.00,,,0.00,Wunderground v.1.15,2013-12-10 11:22:00,
2013-12-10 05:24:00,8.1,3.5,30.03,WNW,297,15.0,23.0,81,0.00,,,0.00,Wunderground v.1.15,2013-12-10 11:24:00,
2013-12-10 05:30:00,7.8,3.2,30.04,West,274,15.0,15.0,81,0.00,,,0.00,Wunderground v.1.15,2013-12-10 11:30:00,
2013-12-10 05:34:00,7.7,3.1,30.04,West,271,15.0,23.0,81,0.00,,,0.00,Wunderground v.1.15,2013-12-10 11:34:00,
2013-12-10 05:36:00,7.6,3.0,30.04,WNW,283,16.0,23.0,81,0.00,,,0.00,Wunderground v.1.15,2013-12-10 11:36:00,
2013-12-10 05:38:00,7.5,2.9,30.04,WNW,302,16.0,23.0,81,0.00,,,0.00,Wunderground v.1.15,2013-12-10 11:38:00,
2013-12-10 05:39:00,7.5,2.9,30.04,WNW,303,16.0,16.0,81,0.00,,,0.00,Wunderground v.1.15,2013-12-10 11:39:00,
2013-12-10 05:41:00,7.4,2.8,30.05,NW,309,16.0,23.0,81,0.00,,,0.00,Wunderground v.1.15,2013-12-10 11:41:00,
2013-12-10 05:43:00,7.4,2.8,30.05,West,274,16.0,23.0,81,0.00,,,0.00,Wunderground v.1.15,2013-12-10 11:43:00,
2013-12-10 05:46:00,7.3,2.7,30.05,WNW,295,15.0,23.0,81,0.00,,,0.00,Wunderground v.1.15,2013-12-10 11:46:00,
2013-12-10 05:48:00,7.3,2.4,30.05,WNW,290,15.0,23.0,80,0.00,,,0.00,Wunderground v.1.15,2013-12-10 11:48:00,
2013-12-10 05:52:00,7.0,2.1,30.06,WNW,287,14.0,16.0,80,0.00,,,0.00,Wunderground v.1.15,2013-12-10 11:52:00,
2013-12-10 05:54:00,6.9,2.3,30.06,WNW,301,14.0,23.0,81,0.00,,,0.00,Wunderground v.1.15,2013-12-10 11:54:00,
2013-12-10 05:56:00,6.9,2.3,30.06,NW,307,13.0,23.0,81,0.00,,,0.00,Wunderground v.1.15,2013-12-10 11:56:00,
2013-12-10 05:58:00,6.8,2.2,30.07,WNW,300,12.0,23.0,81,0.00,,,0.00,Wunderground v.1.15,2013-12-10 11:58:00,
2013-12-10 06:00:00,6.7,2.1,30.07,WNW,285,12.0,12.0,81,0.00,,,0.00,Wunderground v.1.15,2013-12-10 12:00:00,
2013-12-10 06:01:00,6.6,2.0,30.07,West,272,12.0,23.0,81,0.00,,,0.00,Wunderground v.1.15,2013-12-10 12:01:00,
2013-12-10 06:06:00,6.3,2.0,30.07,NW,304,10.0,23.0,82,0.00,,,0.00,Wunderground v.1.15,2013-12-10 12:06:00,
2013-12-10 06:08:00,6.2,1.6,30.07,WNW,282,10.0,23.0,81,0.00,,,0.00,Wunderground v.1.15,2013-12-10 12:08:00,
2013-12-10 06:10:00,6.2,1.6,30.07,NW,309,10.0,23.0,81,0.00,,,0.00,Wunderground v.1.15,2013-12-10 12:10:00,
2013-12-10 06:14:00,6.0,1.2,30.07,WNW,286,11.0,23.0,80,0.00,,,0.00,Wunderground v.1.15,2013-12-10 12:14:00,
2013-12-10 06:16:00,5.9,1.1,30.07,WNW,301,12.0,23.0,80,0.00,,,0.00,Wunderground v.1.15,2013-12-10 12:16:00,
2013-12-10 06:20:00,5.6,0.8,30.07,NW,304,11.0,23.0,80,0.00,,,0.00,Wunderground v.1.15,2013-12-10 12:20:00,
2013-12-10 06:22:00,5.6,0.8,30.06,West,270,11.0,23.0,80,0.00,,,0.00,Wunderground v.1.15,2013-12-10 12:22:00,
2013-12-10 06:25:00,5.3,0.5,30.06,West,273,11.0,23.0,80,0.00,,,0.00,Wunderground v.1.15,2013-12-10 12:25:00,
2013-12-10 06:28:00,5.2,0.4,30.07,WNW,290,11.0,23.0,80,0.00,,,0.00,Wunderground v.1.15,2013-12-10 12:28:00,
2013-12-10 06:30:00,5.1,0.3,30.07,NNW,331,11.0,23.0,80,0.00,,,0.00,Wunderground v.1.15,2013-12-10 12:30:00,
2013-12-10 06:34:00,5.0,0.2,30.06,WNW,285,10.0,23.0,80,0.00,,,0.00,Wunderground v.1.15,2013-12-10 12:34:00,
2013-12-10 06:36:00,4.9,0.1,30.07,WNW,300,10.0,23.0,80,0.00,,,0.00,Wunderground v.1.15,2013-12-10 12:36:00,
2013-12-10 06:42:00,4.8,0.0,30.08,NW,307,10.0,23.0,80,0.00,,,0.00,Wunderground v.1.15,2013-12-10 12:42:00,
2013-12-10 06:43:00,4.8,0.0,30.08,NW,304,10.0,23.0,80,0.00,,,0.00,Wunderground v.1.15,2013-12-10 12:43:00,
2013-12-10 06:45:00,4.7,-0.1,30.08,WNW,292,11.0,23.0,80,0.00,,,0.00,Wunderground v.1.15,2013-12-10 12:45:00,
2013-12-10 06:48:00,4.7,-0.1,30.08,WNW,301,11.0,23.0,80,0.00,,,0.00,Wunderground v.1.15,2013-12-10 12:48:00,
2013-12-10 06:52:00,4.6,-0.5,30.09,WNW,294,11.0,17.0,79,0.00,,,0.00,Wunderground v.1.15,2013-12-10 12:52:00,
2013-12-10 06:54:00,4.6,-0.2,30.08,NW,311,11.0,23.0,80,0.00,,,0.00,Wunderground v.1.15,2013-12-10 12:54:00,
2013-12-10 06:56:00,4.6,-0.2,30.08,WNW,283,12.0,23.0,80,0.00,,,0.00,Wunderground v.1.15,2013-12-10 12:56:00,
2013-12-10 06:58:00,4.6,-0.2,30.09,WNW,297,12.0,23.0,80,0.00,,,0.00,Wunderground v.1.15,2013-12-10 12:58:00,
2013-12-10 07:00:00,4.5,-0.3,30.09,WNW,292,12.0,23.0,80,0.00,,,0.00,Wunderground v.1.15,2013-12-10 13:00:00,
2013-12-10 07:02:00,4.4,-0.4,30.10,NW,313,12.0,23.0,80,0.00,,,0.00,Wunderground v.1.15,2013-12-10 13:02:00,
2013-12-10 07:05:00,4.4,-0.1,30.10,NW,311,12.0,23.0,81,0.00,,,0.00,Wunderground v.1.15,2013-12-10 13:05:00,
2013-12-10 07:07:00,4.4,-0.1,30.10,WNW,287,12.0,23.0,81,0.00,,,0.00,Wunderground v.1.15,2013-12-10 13:07:00,
2013-12-10 07:10:00,4.2,-0.3,30.10,WNW,293,11.0,11.0,81,0.00,,,0.00,Wunderground v.1.15,2013-12-10 13:10:00,
2013-12-10 07:14:00,4.1,-0.4,30.10,West,281,10.0,23.0,81,0.00,,,0.00,Wunderground v.1.15,2013-12-10 13:14:00,
2013-12-10 07:16:00,4.0,-0.5,30.10,WNW,282,10.0,23.0,81,0.00,,,0.00,Wunderground v.1.15,2013-12-10 13:16:00,
2013-12-10 07:20:00,3.9,-0.6,30.11,WNW,298,10.0,23.0,81,0.00,,,0.00,Wunderground v.1.15,2013-12-10 13:20:00,
2013-12-10 07:22:00,3.9,-0.4,30.11,NNW,338,10.0,23.0,82,0.00,,,0.00,Wunderground v.1.15,2013-12-10 13:22:00,
2013-12-10 07:26:00,3.9,-0.4,30.11,WNW,285,10.0,23.0,82,0.00,,,0.00,Wunderground v.1.15,2013-12-10 13:26:00,
2013-12-10 07:27:00,3.8,-0.5,30.11,WNW,303,10.0,23.0,82,0.00,,,0.00,Wunderground v.1.15,2013-12-10 13:27:00,
2013-12-10 07:29:00,3.8,-0.5,30.11,WNW,301,10.0,23.0,82,0.00,,,0.00,Wunderground v.1.15,2013-12-10 13:29:00,
2013-12-10 07:32:00,3.7,-0.6,30.11,WNW,300,10.0,23.0,82,0.00,,,0.00,Wunderground v.1.15,2013-12-10 13:32:00,
2013-12-10 07:36:00,3.6,-0.7,30.11,NW,319,10.0,23.0,82,0.00,,,0.00,Wunderground v.1.15,2013-12-10 13:36:00,
2013-12-10 07:38:00,3.6,-0.7,30.11,WNW,287,10.0,23.0,82,0.00,,,0.00,Wunderground v.1.15,2013-12-10 13:38:00,
2013-12-10 07:40:00,3.5,-0.8,30.11,WNW,302,9.0,9.0,82,0.00,,,0.00,Wunderground v.1.15,2013-12-10 13:40:00,
2013-12-10 07:42:00,3.4,-1.1,30.11,NW,315,9.0,11.0,81,0.00,,,0.00,Wunderground v.1.15,2013-12-10 13:42:00,
2013-12-10 07:44:00,3.3,-1.0,30.11,WNW,288,9.0,23.0,82,0.00,,,0.00,Wunderground v.1.15,2013-12-10 13:44:00,
2013-12-10 07:46:00,3.2,-1.1,30.11,WNW,301,8.0,23.0,82,0.00,,,0.00,Wunderground v.1.15,2013-12-10 13:46:00,
2013-12-10 07:47:00,3.1,-1.2,30.12,WNW,297,8.0,23.0,82,0.00,,,0.00,Wunderground v.1.15,2013-12-10 13:47:00,
2013-12-10 07:49:00,3.0,-1.3,30.12,WNW,293,8.0,23.0,82,0.00,,,0.00,Wunderground v.1.15,2013-12-10 13:49:00,
2013-12-10 07:51:00,3.0,-1.3,30.12,WNW,295,8.0,23.0,82,0.00,,,0.00,Wunderground v.1.15,2013-12-10 13:51:00,
2013-12-10 07:54:00,3.0,-1.3,30.13,NNW,339,8.0,23.0,82,0.00,,,0.00,Wunderground v.1.15,2013-12-10 13:54:00,
2013-12-10 07:56:00,2.9,-1.3,30.13,West,267,8.0,23.0,82,0.00,,,0.00,Wunderground v.1.15,2013-12-10 13:56:00,
2013-12-10 08:00:00,2.8,-1.4,30.14,West,263,8.0,23.0,82,0.00,,,0.00,Wunderground v.1.15,2013-12-10 14:00:00,
2013-12-10 08:02:00,2.9,-1.3,30.15,West,278,9.0,23.0,82,0.00,,,0.00,Wunderground v.1.15,2013-12-10 14:02:00,
2013-12-10 08:04:00,2.9,-1.3,30.15,WNW,282,9.0,23.0,82,0.00,,,0.00,Wunderground v.1.15,2013-12-10 14:04:00,
2013-12-10 08:08:00,2.9,-1.3,30.15,WNW,283,10.0,23.0,82,0.00,,,0.00,Wunderground v.1.15,2013-12-10 14:08:00,
2013-12-10 08:09:00,3.0,-1.3,30.15,West,280,10.0,23.0,82,0.00,,,0.00,Wunderground v.1.15,2013-12-10 14:09:00,
2013-12-10 08:12:00,3.0,-1.3,30.15,West,264,10.0,23.0,82,0.00,,,0.00,Wunderground v.1.15,2013-12-10 14:12:00,
2013-12-10 08:14:00,3.1,-1.2,30.15,WNW,293,10.0,23.0,82,0.00,,,0.00,Wunderground v.1.15,2013-12-10 14:14:00,
2013-12-10 08:18:00,3.1,-1.4,30.15,WNW,287,10.0,23.0,81,0.00,,,0.00,Wunderground v.1.15,2013-12-10 14:18:00,
2013-12-10 08:20:00,3.1,-1.4,30.15,WNW,302,10.0,10.0,81,0.00,,,0.00,Wunderground v.1.15,2013-12-10 14:20:00,
2013-12-10 08:24:00,3.1,-1.4,30.14,WNW,294,10.0,23.0,81,0.00,,,0.00,Wunderground v.1.15,2013-12-10 14:24:00,
2013-12-10 08:26:00,3.2,-1.3,30.14,West,270,10.0,23.0,81,0.00,,,0.00,Wunderground v.1.15,2013-12-10 14:26:00,
2013-12-10 08:30:00,3.2,-1.3,30.15,WNW,284,10.0,23.0,81,0.00,,,0.00,Wunderground v.1.15,2013-12-10 14:30:00,
2013-12-10 08:32:00,3.3,-1.2,30.15,WNW,294,10.0,23.0,81,0.00,,,0.00,Wunderground v.1.15,2013-12-10 14:32:00,
2013-12-10 08:36:00,3.3,-1.2,30.15,WNW,285,10.0,23.0,81,0.00,,,0.00,Wunderground v.1.15,2013-12-10 14:36:00,
2013-12-10 08:40:00,3.4,-1.1,30.14,NNW,330,10.0,10.0,81,0.00,,,0.00,Wunderground v.1.15,2013-12-10 14:40:00,
2013-12-10 08:42:00,3.4,-1.1,30.14,NW,305,10.0,23.0,81,0.00,,,0.00,Wunderground v.1.15,2013-12-10 14:42:00,
2013-12-10 08:44:00,3.5,-1.0,30.13,NW,311,10.0,23.0,81,0.00,,,0.00,Wunderground v.1.15,2013-12-10 14:44:00,
2013-12-10 08:48:00,3.5,-1.0,30.14,WNW,290,9.0,23.0,81,0.00,,,0.00,Wunderground v.1.15,2013-12-10 14:48:00,
2013-12-10 08:50:00,3.5,-1.0,30.14,WNW,301,9.0,23.0,81,0.00,,,0.00,Wunderground v.1.15,2013-12-10 14:50:00,
2013-12-10 08:54:00,3.6,-0.9,30.15,NW,305,9.0,23.0,81,0.00,,,0.00,Wunderground v.1.15,2013-12-10 14:54:00,
2013-12-10 08:58:00,3.7,-1.1,30.15,WNW,283,9.0,23.0,80,0.00,,,0.00,Wunderground v.1.15,2013-12-10 14:58:00,
2013-12-10 09:00:00,3.8,-1.0,30.15,WNW,297,9.0,9.0,80,0.00,,,0.00,Wunderground v.1.15,2013-12-10 15:00:00,
2013-12-10 09:06:00,4.0,-0.8,30.16,WNW,287,8.0,23.0,80,0.00,,,0.00,Wunderground v.1.15,2013-12-10 15:06:00,
2013-12-10 09:08:00,4.1,-0.7,30.16,WNW,301,8.0,23.0,80,0.00,,,0.00,Wunderground v.1.15,2013-12-10 15:08:00,
2013-12-10 09:10:00,4.0,-0.8,30.16,WNW,291,8.0,8.0,80,0.00,,,0.00,Wunderground v.1.15,2013-12-10 15:10:00,
2013-12-10 09:12:00,4.1,-0.7,30.15,WNW,293,8.0,23.0,80,0.00,,,0.00,Wunderground v.1.15,2013-12-10 15:12:00,
2013-12-10 09:14:00,4.2,-0.6,30.16,WNW,302,8.0,23.0,80,0.00,,,0.00,Wunderground v.1.15,2013-12-10 15:14:00,
2013-12-10 09:16:00,4.2,-0.6,30.16,WNW,297,8.0,23.0,80,0.00,,,0.00,Wunderground v.1.15,2013-12-10 15:16:00,
2013-12-10 09:18:00,4.3,-0.5,30.16,WNW,293,7.0,23.0,80,0.00,,,0.00,Wunderground v.1.15,2013-12-10 15:18:00,
2013-12-10 09:22:00,4.5,-0.6,30.17,WNW,284,7.0,23.0,79,0.00,,,0.00,Wunderground v.1.15,2013-12-10 15:22:00,
2013-12-10 09:24:00,4.5,-0.6,30.17,WNW,293,7.0,23.0,79,0.00,,,0.00,Wunderground v.1.15,2013-12-10 15:24:00,
2013-12-10 09:28:00,4.7,-0.4,30.18,WNW,294,7.0,23.0,79,0.00,,,0.00,Wunderground v.1.15,2013-12-10 15:28:00,
2013-12-10 09:30:00,4.8,-0.3,30.18,WNW,286,7.0,23.0,79,0.00,,,0.00,Wunderground v.1.15,2013-12-10 15:30:00,
2013-12-10 09:32:00,4.9,-0.2,30.18,WNW,289,8.0,23.0,79,0.00,,,0.00,Wunderground v.1.15,2013-12-10 15:32:00,
2013-12-10 09:36:00,5.1,-0.3,30.18,WNW,284,7.0,23.0,78,0.00,,,0.00,Wunderground v.1.15,2013-12-10 15:36:00,
2013-12-10 09:42:00,5.2,-0.2,30.18,West,264,8.0,23.0,78,0.00,,,0.00,Wunderground v.1.15,2013-12-10 15:42:00,
2013-12-10 09:44:00,5.3,-0.1,30.18,WNW,283,8.0,23.0,78,0.00,,,0.00,Wunderground v.1.15,2013-12-10 15:44:00,
2013-12-10 09:46:00,5.4,0.0,30.18,WNW,291,8.0,23.0,78,0.00,,,0.00,Wunderground v.1.15,2013-12-10 15:46:00,
2013-12-10 09:48:00,5.4,0.0,30.18,WNW,287,7.0,23.0,78,0.00,,,0.00,Wunderground v.1.15,2013-12-10 15:48:00,
2013-12-10 09:50:00,5.5,-0.1,30.18,WNW,290,7.0,23.0,77,0.00,,,0.00,Wunderground v.1.15,2013-12-10 15:50:00,
2013-12-10 09:54:00,5.6,-0.1,30.19,West,270,7.0,23.0,77,0.00,,,0.00,Wunderground v.1.15,2013-12-10 15:54:00,
2013-12-10 09:58:00,5.9,0.5,30.19,West,276,7.0,23.0,78,0.00,,,0.00,Wunderground v.1.15,2013-12-10 15:58:00,
2013-12-10 10:00:00,5.9,0.2,30.20,West,271,7.0,7.0,77,0.00,,,0.00,Wunderground v.1.15,2013-12-10 16:00:00,
2013-12-10 10:02:00,6.1,0.4,30.20,WNW,293,7.0,8.0,77,0.00,,,0.00,Wunderground v.1.15,2013-12-10 16:02:00,
2013-12-10 10:06:00,6.2,0.5,30.20,West,275,8.0,23.0,77,0.00,,,0.00,Wunderground v.1.15,2013-12-10 16:06:00,
2013-12-10 10:08:00,6.4,1.0,30.20,WNW,286,8.0,23.0,78,0.00,,,0.00,Wunderground v.1.15,2013-12-10 16:08:00,
2013-12-10 10:12:00,6.5,0.8,30.20,WNW,293,8.0,10.0,77,0.00,,,0.00,Wunderground v.1.15,2013-12-10 16:12:00,
2013-12-10 10:14:00,6.5,0.8,30.20,West,259,8.0,23.0,77,0.00,,,0.00,Wunderground v.1.15,2013-12-10 16:14:00,
2013-12-10 10:16:00,6.5,0.8,30.20,WNW,301,9.0,23.0,77,0.00,,,0.00,Wunderground v.1.15,2013-12-10 16:16:00,
2013-12-10 10:18:00,6.6,0.9,30.20,WSW,257,9.0,23.0,77,0.00,,,0.00,Wunderground v.1.15,2013-12-10 16:18:00,
2013-12-10 10:22:00,6.8,1.1,30.21,WNW,288,9.0,23.0,77,0.00,,,0.00,Wunderground v.1.15,2013-12-10 16:22:00,
2013-12-10 10:24:00,6.9,1.2,30.21,West,262,9.0,23.0,77,0.00,,,0.00,Wunderground v.1.15,2013-12-10 16:24:00,
2013-12-10 10:26:00,7.0,1.6,30.20,West,281,9.0,23.0,78,0.00,,,0.00,Wunderground v.1.15,2013-12-10 16:26:00,
2013-12-10 10:28:00,7.1,1.7,30.20,West,281,9.0,23.0,78,0.00,,,0.00,Wunderground v.1.15,2013-12-10 16:28:00,
2013-12-10 10:30:00,7.0,1.3,30.20,WNW,291,9.0,23.0,77,0.00,,,0.00,Wunderground v.1.15,2013-12-10 16:30:00,
2013-12-10 10:34:00,7.0,1.3,30.20,WNW,285,10.0,23.0,77,0.00,,,0.00,Wunderground v.1.15,2013-12-10 16:34:00,
2013-12-10 10:38:00,7.2,1.5,30.21,WNW,295,10.0,23.0,77,0.00,,,0.00,Wunderground v.1.15,2013-12-10 16:38:00,
2013-12-10 10:40:00,7.3,1.9,30.21,WNW,301,10.0,10.0,78,0.00,,,0.00,Wunderground v.1.15,2013-12-10 16:40:00,
2013-12-10 10:44:00,7.7,2.5,30.21,WNW,283,9.0,23.0,79,0.00,,,0.00,Wunderground v.1.15,2013-12-10 16:44:00,
2013-12-10 10:46:00,7.8,2.4,30.21,West,273,9.0,23.0,78,0.00,,,0.00,Wunderground v.1.15,2013-12-10 16:46:00,
2013-12-10 10:48:00,7.9,2.5,30.21,West,281,9.0,23.0,78,0.00,,,0.00,Wunderground v.1.15,2013-12-10 16:48:00,
2013-12-10 10:50:00,8.0,2.6,30.21,West,273,10.0,23.0,78,0.00,,,0.00,Wunderground v.1.15,2013-12-10 16:50:00,
2013-12-10 10:52:00,8.1,2.7,30.22,WSW,257,10.0,23.0,78,0.00,,,0.00,Wunderground v.1.15,2013-12-10 16:52:00,
2013-12-10 10:56:00,8.2,2.8,30.22,WNW,284,10.0,23.0,78,0.00,,,0.00,Wunderground v.1.15,2013-12-10 16:56:00,
2013-12-10 10:58:00,8.3,3.1,30.22,WNW,290,10.0,23.0,79,0.00,,,0.00,Wunderground v.1.15,2013-12-10 16:58:00,
2013-12-10 11:00:00,8.3,3.1,30.22,West,273,10.0,23.0,79,0.00,,,0.00,Wunderground v.1.15,2013-12-10 17:00:00,
2013-12-10 11:04:00,8.4,2.9,30.22,WNW,293,11.0,23.0,78,0.00,,,0.00,Wunderground v.1.15,2013-12-10 17:04:00,
2013-12-10 11:06:00,8.6,3.4,30.22,WNW,300,11.0,23.0,79,0.00,,,0.00,Wunderground v.1.15,2013-12-10 17:06:00,
2013-12-10 11:08:00,8.8,3.9,30.22,West,270,11.0,23.0,80,0.00,,,0.00,Wunderground v.1.15,2013-12-10 17:08:00,
2013-12-10 11:10:00,8.9,3.7,30.21,WNW,301,11.0,11.0,79,0.00,,,0.00,Wunderground v.1.15,2013-12-10 17:10:00,
2013-12-10 11:12:00,8.9,3.4,30.21,West,277,10.0,23.0,78,0.00,,,0.00,Wunderground v.1.15,2013-12-10 17:12:00,
2013-12-10 11:13:00,9.0,3.5,30.21,WNW,287,10.0,23.0,78,0.00,,,0.00,Wunderground v.1.15,2013-12-10 17:13:00,
2013-12-10 11:15:00,9.0,3.5,30.20,West,268,10.0,23.0,78,0.00,,,0.00,Wunderground v.1.15,2013-12-10 17:15:00,
2013-12-10 11:18:00,9.0,3.5,30.20,West,273,10.0,23.0,78,0.00,,,0.00,Wunderground v.1.15,2013-12-10 17:18:00,
2013-12-10 11:22:00,9.1,3.4,30.20,West,270,10.0,23.0,77,0.00,,,0.00,Wunderground v.1.15,2013-12-10 17:22:00,
2013-12-10 11:24:00,9.1,3.6,30.19,West,280,10.0,23.0,78,0.00,,,0.00,Wunderground v.1.15,2013-12-10 17:24:00,
2013-12-10 11:26:00,9.3,3.8,30.19,West,280,9.0,23.0,78,0.00,,,0.00,Wunderground v.1.15,2013-12-10 17:26:00,
2013-12-10 11:28:00,9.3,3.8,30.19,West,269,9.0,23.0,78,0.00,,,0.00,Wunderground v.1.15,2013-12-10 17:28:00,
2013-12-10 11:30:00,9.5,4.0,30.20,West,269,9.0,23.0,78,0.00,,,0.00,Wunderground v.1.15,2013-12-10 17:30:00,
2013-12-10 11:32:00,9.7,4.2,30.20,WSW,247,8.0,23.0,78,0.00,,,0.00,Wunderground v.1.15,2013-12-10 17:32:00,
2013-12-10 11:34:00,9.8,4.0,30.19,WSW,244,8.0,23.0,77,0.00,,,0.00,Wunderground v.1.15,2013-12-10 17:34:00,
2013-12-10 11:35:00,9.9,4.4,30.19,WSW,256,8.0,23.0,78,0.00,,,0.00,Wunderground v.1.15,2013-12-10 17:35:00,
2013-12-10 11:37:00,9.9,4.1,30.19,West,266,8.0,23.0,77,0.00,,,0.00,Wunderground v.1.15,2013-12-10 17:37:00,
2013-12-10 11:40:00,9.8,3.7,30.19,WNW,291,8.0,8.0,76,0.00,,,0.00,Wunderground v.1.15,2013-12-10 17:40:00,
2013-12-10 11:42:00,10.0,4.2,30.19,West,268,8.0,23.0,77,0.00,,,0.00,Wunderground v.1.15,2013-12-10 17:42:00,
2013-12-10 11:44:00,10.1,4.6,30.19,WSW,254,8.0,23.0,78,0.00,,,0.00,Wunderground v.1.15,2013-12-10 17:44:00,
2013-12-10 11:48:00,10.1,4.6,30.20,West,269,9.0,23.0,78,0.00,,,0.00,Wunderground v.1.15,2013-12-10 17:48:00,
2013-12-10 11:56:00,10.2,4.7,30.20,West,278,9.0,23.0,78,0.00,,,0.00,Wunderground v.1.15,2013-12-10 17:56:00,
2013-12-10 11:58:00,10.2,4.4,30.20,WSW,248,9.0,23.0,77,0.00,,,0.00,Wunderground v.1.15,2013-12-10 17:58:00,
2013-12-10 12:00:00,10.2,4.4,30.20,WSW,252,10.0,10.0,77,0.00,,,0.00,Wunderground v.1.15,2013-12-10 18:00:00,
2013-12-10 12:02:00,10.3,4.5,30.19,WSW,248,10.0,13.0,77,0.00,,,0.00,Wunderground v.1.15,2013-12-10 18:02:00,
2013-12-10 12:04:00,10.3,4.2,30.19,SW,229,10.0,23.0,76,0.00,,,0.00,Wunderground v.1.15,2013-12-10 18:04:00,
2013-12-10 12:06:00,10.5,4.7,30.19,WSW,248,10.0,23.0,77,0.00,,,0.00,Wunderground v.1.15,2013-12-10 18:06:00,
2013-12-10 12:11:00,10.6,4.8,30.20,WSW,250,10.0,12.0,77,0.00,,,0.00,Wunderground v.1.15,2013-12-10 18:11:00,
2013-12-10 12:14:00,10.7,4.9,30.20,WSW,242,10.0,16.0,77,0.00,,,0.00,Wunderground v.1.15,2013-12-10 18:14:00,
2013-12-10 12:18:00,10.7,4.9,30.20,West,269,10.0,16.0,77,0.00,,,0.00,Wunderground v.1.15,2013-12-10 18:18:00,
2013-12-10 12:20:00,10.6,4.5,30.20,WSW,243,10.0,10.0,76,0.00,,,0.00,Wunderground v.1.15,2013-12-10 18:20:00,
2013-12-10 12:22:00,10.6,4.5,30.20,West,270,11.0,11.0,76,0.00,,,0.00,Wunderground v.1.15,2013-12-10 18:22:00,
2013-12-10 12:26:00,10.6,4.5,30.19,West,262,10.0,11.0,76,0.00,,,0.00,Wunderground v.1.15,2013-12-10 18:26:00,
2013-12-10 12:28:00,10.6,4.5,30.19,West,274,10.0,11.0,76,0.00,,,0.00,Wunderground v.1.15,2013-12-10 18:28:00,
2013-12-10 12:30:00,10.7,4.6,30.19,West,263,9.0,11.0,76,0.00,,,0.00,Wunderground v.1.15,2013-12-10 18:30:00,
2013-12-10 12:31:00,10.6,4.5,30.18,West,269,9.0,11.0,76,0.00,,,0.00,Wunderground v.1.15,2013-12-10 18:31:00,
2013-12-10 12:33:00,10.7,4.6,30.18,West,270,9.0,11.0,76,0.00,,,0.00,Wunderground v.1.15,2013-12-10 18:33:00,
2013-12-10 12:36:00,10.6,4.5,30.18,WNW,286,9.0,11.0,76,0.00,,,0.00,Wunderground v.1.15,2013-12-10 18:36:00,
2013-12-10 12:40:00,10.7,4.3,30.18,West,278,8.0,11.0,75,0.00,,,0.00,Wunderground v.1.15,2013-12-10 18:40:00,
2013-12-10 12:42:00,10.7,4.3,30.18,West,265,8.0,11.0,75,0.00,,,0.00,Wunderground v.1.15,2013-12-10 18:42:00,
2013-12-10 12:44:00,10.9,4.5,30.18,West,278,8.0,11.0,75,0.00,,,0.00,Wunderground v.1.15,2013-12-10 18:44:00,
2013-12-10 12:48:00,11.0,4.3,30.18,WSW,249,8.0,11.0,74,0.00,,,0.00,Wunderground v.1.15,2013-12-10 18:48:00,
2013-12-10 12:50:00,11.1,4.7,30.18,WSW,249,8.0,12.0,75,0.00,,,0.00,Wunderground v.1.15,2013-12-10 18:50:00,
2013-12-10 12:51:00,11.2,4.8,30.18,West,266,9.0,12.0,75,0.00,,,0.00,Wunderground v.1.15,2013-12-10 18:51:00,
2013-12-10 12:53:00,11.3,4.9,30.18,WSW,248,9.0,14.0,75,0.00,,,0.00,Wunderground v.1.15,2013-12-10 18:53:00,
2013-12-10 12:58:00,11.4,5.0,30.18,SW,226,9.0,14.0,75,0.00,,,0.00,Wunderground v.1.15,2013-12-10 18:58:00,
2013-12-10 13:02:00,11.4,5.0,30.18,West,269,9.0,15.0,75,0.00,,,0.00,Wunderground v.1.15,2013-12-10 19:02:00,
2013-12-10 13:04:00,11.5,5.1,30.18,West,274,9.0,15.0,75,0.00,,,0.00,Wunderground v.1.15,2013-12-10 19:04:00,
2013-12-10 13:06:00,11.5,5.1,30.18,WNW,285,9.0,15.0,75,0.00,,,0.00,Wunderground v.1.15,2013-12-10 19:06:00,
2013-12-10 13:08:00,11.6,5.5,30.18,WSW,256,9.0,15.0,76,0.00,,,0.00,Wunderground v.1.15,2013-12-10 19:08:00,
2013-12-10 13:10:00,11.6,5.5,30.17,West,266,9.0,15.0,76,0.00,,,0.00,Wunderground v.1.15,2013-12-10 19:10:00,
2013-12-10 13:12:00,11.6,5.2,30.17,WSW,254,9.0,15.0,75,0.00,,,0.00,Wunderground v.1.15,2013-12-10 19:12:00,
2013-12-10 13:15:00,11.5,5.1,30.17,WSW,240,10.0,15.0,75,0.00,,,0.00,Wunderground v.1.15,2013-12-10 19:15:00,
2013-12-10 13:18:00,11.5,5.1,30.17,West,260,10.0,15.0,75,0.00,,,0.00,Wunderground v.1.15,2013-12-10 19:18:00,
2013-12-10 13:20:00,11.5,5.4,30.17,WSW,252,10.0,10.0,76,0.00,,,0.00,Wunderground v.1.15,2013-12-10 19:20:00,
2013-12-10 13:22:00,11.6,5.5,30.17,West,259,10.0,15.0,76,0.00,,,0.00,Wunderground v.1.15,2013-12-10 19:22:00,
2013-12-10 13:24:00,11.7,5.6,30.17,West,276,10.0,15.0,76,0.00,,,0.00,Wunderground v.1.15,2013-12-10 19:24:00,
2013-12-10 13:26:00,11.7,5.6,30.17,WSW,239,9.0,15.0,76,0.00,,,0.00,Wunderground v.1.15,2013-12-10 19:26:00,
2013-12-10 13:28:00,11.7,5.6,30.17,WSW,250,9.0,15.0,76,0.00,,,0.00,Wunderground v.1.15,2013-12-10 19:28:00,
2013-12-10 13:30:00,11.7,5.6,30.17,WSW,250,9.0,15.0,76,0.00,,,0.00,Wunderground v.1.15,2013-12-10 19:30:00,
2013-12-10 13:32:00,11.7,5.6,30.17,WNW,284,10.0,15.0,76,0.00,,,0.00,Wunderground v.1.15,2013-12-10 19:32:00,
2013-12-10 13:34:00,11.7,5.6,30.17,WSW,250,10.0,15.0,76,0.00,,,0.00,Wunderground v.1.15,2013-12-10 19:34:00,
2013-12-10 13:36:00,11.8,5.7,30.16,West,270,9.0,15.0,76,0.00,,,0.00,Wunderground v.1.15,2013-12-10 19:36:00,
2013-12-10 13:38:00,11.7,5.6,30.16,West,270,9.0,15.0,76,0.00,,,0.00,Wunderground v.1.15,2013-12-10 19:38:00,
2013-12-10 13:40:00,11.7,5.6,30.16,West,270,9.0,9.0,76,0.00,,,0.00,Wunderground v.1.15,2013-12-10 19:40:00,
2013-12-10 13:42:00,11.8,5.7,30.16,WNW,283,9.0,15.0,76,0.00,,,0.00,Wunderground v.1.15,2013-12-10 19:42:00,
2013-12-10 13:44:00,11.8,5.7,30.16,WSW,249,9.0,15.0,76,0.00,,,0.00,Wunderground v.1.15,2013-12-10 19:44:00,
2013-12-10 13:46:00,11.8,6.0,30.16,West,277,8.0,15.0,77,0.00,,,0.00,Wunderground v.1.15,2013-12-10 19:46:00,
2013-12-10 13:48:00,11.9,6.1,30.16,West,277,8.0,15.0,77,0.00,,,0.00,Wunderground v.1.15,2013-12-10 19:48:00,
2013-12-10 13:50:00,12.1,6.3,30.16,WSW,245,8.0,15.0,77,0.00,,,0.00,Wunderground v.1.15,2013-12-10 19:50:00,
2013-12-10 13:52:00,12.1,6.3,30.16,West,274,8.0,15.0,77,0.00,,,0.00,Wunderground v.1.15,2013-12-10 19:52:00,
2013-12-10 13:54:00,12.2,6.4,30.15,WNW,287,8.0,15.0,77,0.00,,,0.00,Wunderground v.1.15,2013-12-10 19:54:00,
2013-12-10 13:56:00,12.2,6.4,30.15,West,264,8.0,15.0,77,0.00,,,0.00,Wunderground v.1.15,2013-12-10 19:56:00,
2013-12-10 14:00:00,12.3,6.5,30.15,West,263,8.0,8.0,77,0.00,,,0.00,Wunderground v.1.15,2013-12-10 20:00:00,
2013-12-10 14:02:00,12.4,6.6,30.15,WSW,254,8.0,15.0,77,0.00,,,0.00,Wunderground v.1.15,2013-12-10 20:02:00,
2013-12-10 14:03:00,12.4,6.8,30.15,West,271,8.0,15.0,78,0.00,,,0.00,Wunderground v.1.15,2013-12-10 20:03:00,
2013-12-10 14:08:00,12.4,6.6,30.15,West,275,7.0,15.0,77,0.00,,,0.00,Wunderground v.1.15,2013-12-10 20:08:00,
2013-12-10 14:10:00,12.4,6.6,30.14,West,271,7.0,15.0,77,0.00,,,0.00,Wunderground v.1.15,2013-12-10 20:10:00,
2013-12-10 14:12:00,12.4,6.6,30.14,WSW,257,8.0,15.0,77,0.00,,,0.00,Wunderground v.1.15,2013-12-10 20:12:00,
2013-12-10 14:14:00,12.5,6.9,30.14,West,279,7.0,15.0,78,0.00,,,0.00,Wunderground v.1.15,2013-12-10 20:14:00,
2013-12-10 14:18:00,12.6,7.0,30.13,WNW,290,7.0,15.0,78,0.00,,,0.00,Wunderground v.1.15,2013-12-10 20:18:00,
2013-12-10 14:20:00,12.6,6.8,30.13,WNW,285,7.0,7.0,77,0.00,,,0.00,Wunderground v.1.15,2013-12-10 20:20:00,
2013-12-10 14:22:00,12.6,6.8,30.13,West,263,6.0,15.0,77,0.00,,,0.00,Wunderground v.1.15,2013-12-10 20:22:00,
2013-12-10 14:26:00,12.7,6.9,30.13,West,259,7.0,15.0,77,0.00,,,0.00,Wunderground v.1.15,2013-12-10 20:26:00,
2013-12-10 14:28:00,12.7,7.1,30.13,WSW,257,6.0,15.0,78,0.00,,,0.00,Wunderground v.1.15,2013-12-10 20:28:00,
2013-12-10 14:30:00,12.8,6.9,30.13,WSW,243,6.0,6.0,77,0.00,,,0.00,Wunderground v.1.15,2013-12-10 20:30:00,
2013-12-10 14:32:00,12.8,6.9,30.13,West,271,6.0,15.0,77,0.00,,,0.00,Wunderground v.1.15,2013-12-10 20:32:00,
2013-12-10 14:34:00,12.9,7.3,30.13,WSW,256,5.0,15.0,78,0.00,,,0.00,Wunderground v.1.15,2013-12-10 20:34:00,
2013-12-10 14:36:00,12.9,7.3,30.13,West,276,5.0,15.0,78,0.00,,,0.00,Wunderground v.1.15,2013-12-10 20:36:00,
2013-12-10 14:38:00,12.9,7.0,30.13,WSW,252,5.0,15.0,77,0.00,,,0.00,Wunderground v.1.15,2013-12-10 20:38:00,
2013-12-10 14:40:00,12.9,7.0,30.13,West,260,5.0,15.0,77,0.00,,,0.00,Wunderground v.1.15,2013-12-10 20:40:00,
2013-12-10 14:42:00,13.0,7.4,30.14,West,274,5.0,15.0,78,0.00,,,0.00,Wunderground v.1.15,2013-12-10 20:42:00,
2013-12-10 14:46:00,13.0,7.1,30.14,West,260,6.0,15.0,77,0.00,,,0.00,Wunderground v.1.15,2013-12-10 20:46:00,
2013-12-10 14:50:00,13.0,7.4,30.14,West,280,7.0,15.0,78,0.00,,,0.00,Wunderground v.1.15,2013-12-10 20:50:00,
2013-12-10 14:52:00,13.1,7.5,30.14,West,263,7.0,15.0,78,0.00,,,0.00,Wunderground v.1.15,2013-12-10 20:52:00,
2013-12-10 14:54:00,13.2,7.6,30.14,WSW,254,7.0,15.0,78,0.00,,,0.00,Wunderground v.1.15,2013-12-10 20:54:00,
2013-12-10 14:56:00,13.2,7.6,30.14,West,273,6.0,15.0,78,0.00,,,0.00,Wunderground v.1.15,2013-12-10 20:56:00,
2013-12-10 14:58:00,13.2,7.6,30.14,WSW,244,6.0,15.0,78,0.00,,,0.00,Wunderground v.1.15,2013-12-10 20:58:00,
2013-12-10 15:00:00,13.3,7.7,30.14,West,265,6.0,6.0,78,0.00,,,0.00,Wunderground v.1.15,2013-12-10 21:00:00,
2013-12-10 15:02:00,13.3,8.0,30.14,SW,225,6.0,15.0,79,0.00,,,0.00,Wunderground v.1.15,2013-12-10 21:02:00,
2013-12-10 15:06:00,13.3,7.7,30.15,WSW,257,6.0,15.0,78,0.00,,,0.00,Wunderground v.1.15,2013-12-10 21:06:00,
2013-12-10 15:08:00,13.4,7.8,30.15,WSW,253,6.0,15.0,78,0.00,,,0.00,Wunderground v.1.15,2013-12-10 21:08:00,
2013-12-10 15:10:00,13.4,7.8,30.15,SW,228,6.0,15.0,78,0.00,,,0.00,Wunderground v.1.15,2013-12-10 21:10:00,
2013-12-10 15:12:00,13.4,7.8,30.15,WSW,240,6.0,15.0,78,0.00,,,0.00,Wunderground v.1.15,2013-12-10 21:12:00,
2013-12-10 15:14:00,13.5,7.9,30.15,WSW,245,6.0,15.0,78,0.00,,,0.00,Wunderground v.1.15,2013-12-10 21:14:00,
2013-12-10 15:18:00,13.6,8.0,30.15,WSW,244,6.0,15.0,78,0.00,,,0.00,Wunderground v.1.15,2013-12-10 21:18:00,
2013-12-10 15:20:00,13.6,8.0,30.15,WSW,255,6.0,15.0,78,0.00,,,0.00,Wunderground v.1.15,2013-12-10 21:20:00,
2013-12-10 15:24:00,13.7,8.1,30.15,SW,222,6.0,15.0,78,0.00,,,0.00,Wunderground v.1.15,2013-12-10 21:24:00,
2013-12-10 15:26:00,13.7,8.1,30.15,SW,235,7.0,15.0,78,0.00,,,0.00,Wunderground v.1.15,2013-12-10 21:26:00,
2013-12-10 15:28:00,13.7,8.1,30.15,WSW,252,7.0,15.0,78,0.00,,,0.00,Wunderground v.1.15,2013-12-10 21:28:00,
2013-12-10 15:30:00,13.7,8.4,30.16,SW,232,7.0,7.0,79,0.00,,,0.00,Wunderground v.1.15,2013-12-10 21:30:00,
2013-12-10 15:32:00,13.8,8.5,30.16,SW,228,7.0,10.0,79,0.00,,,0.00,Wunderground v.1.15,2013-12-10 21:32:00,
2013-12-10 15:36:00,13.8,8.2,30.16,WSW,238,8.0,15.0,78,0.00,,,0.00,Wunderground v.1.15,2013-12-10 21:36:00,
2013-12-10 15:38:00,13.8,8.5,30.16,WSW,247,8.0,15.0,79,0.00,,,0.00,Wunderground v.1.15,2013-12-10 21:38:00,
2013-12-10 15:42:00,13.9,8.6,30.16,WSW,238,9.0,15.0,79,0.00,,,0.00,Wunderground v.1.15,2013-12-10 21:42:00,
2013-12-10 15:44:00,13.9,8.6,30.16,WSW,244,9.0,15.0,79,0.00,,,0.00,Wunderground v.1.15,2013-12-10 21:44:00,
2013-12-10 15:48:00,13.9,8.6,30.16,SW,233,8.0,15.0,79,0.00,,,0.00,Wunderground v.1.15,2013-12-10 21:48:00,
2013-12-10 15:52:00,14.0,8.7,30.16,SW,236,8.0,15.0,79,0.00,,,0.00,Wunderground v.1.15,2013-12-10 21:52:00,
2013-12-10 15:54:00,14.0,8.7,30.16,WSW,257,8.0,15.0,79,0.00,,,0.00,Wunderground v.1.15,2013-12-10 21:54:00,
2013-12-10 15:56:00,14.0,8.7,30.17,West,262,8.0,15.0,79,0.00,,,0.00,Wunderground v.1.15,2013-12-10 21:56:00,
2013-12-10 16:02:00,14.1,8.8,30.17,WSW,237,7.0,15.0,79,0.00,,,0.00,Wunderground v.1.15,2013-12-10 22:02:00,
2013-12-10 16:04:00,14.1,8.8,30.17,SW,232,7.0,15.0,79,0.00,,,0.00,Wunderground v.1.15,2013-12-10 22:04:00,
2013-12-10 16:06:00,14.2,8.9,30.17,WSW,243,7.0,15.0,79,0.00,,,0.00,Wunderground v.1.15,2013-12-10 22:06:00,
2013-12-10 16:08:00,14.2,8.9,30.17,West,263,6.0,15.0,79,0.00,,,0.00,Wunderground v.1.15,2013-12-10 22:08:00,
2013-12-10 16:10:00,14.2,8.9,30.17,WSW,250,6.0,15.0,79,0.00,,,0.00,Wunderground v.1.15,2013-12-10 22:10:00,
2013-12-10 16:12:00,14.3,9.0,30.17,WSW,254,6.0,15.0,79,0.00,,,0.00,Wunderground v.1.15,2013-12-10 22:12:00,
2013-12-10 16:16:00,14.3,9.3,30.17,SW,218,6.0,15.0,80,0.00,,,0.00,Wunderground v.1.15,2013-12-10 22:16:00,
2013-12-10 16:22:00,14.4,9.6,30.18,West,266,6.0,15.0,81,0.00,,,0.00,Wunderground v.1.15,2013-12-10 22:22:00,
2013-12-10 16:26:00,14.4,9.6,30.17,WSW,240,6.0,15.0,81,0.00,,,0.00,Wunderground v.1.15,2013-12-10 22:26:00,
2013-12-10 16:28:00,14.3,9.8,30.17,SW,236,6.0,15.0,82,0.00,,,0.00,Wunderground v.1.15,2013-12-10 22:28:00,
2013-12-10 16:34:00,14.2,10.3,30.17,SW,228,6.0,15.0,84,0.00,,,0.00,Wunderground v.1.15,2013-12-10 22:34:00,
2013-12-10 16:36:00,14.2,10.3,30.18,WSW,239,5.0,15.0,84,0.00,,,0.00,Wunderground v.1.15,2013-12-10 22:36:00,
2013-12-10 16:38:00,14.1,10.4,30.18,SW,225,5.0,15.0,85,0.00,,,0.00,Wunderground v.1.15,2013-12-10 22:38:00,
2013-12-10 16:42:00,14.1,10.7,30.18,SW,236,4.0,15.0,86,0.00,,,0.00,Wunderground v.1.15,2013-12-10 22:42:00,
2013-12-10 16:44:00,14.0,10.6,30.18,WSW,246,4.0,15.0,86,0.00,,,0.00,Wunderground v.1.15,2013-12-10 22:44:00,
2013-12-10 16:46:00,14.0,10.8,30.18,WSW,252,4.0,15.0,87,0.00,,,0.00,Wunderground v.1.15,2013-12-10 22:46:00,
2013-12-10 16:48:00,14.0,10.8,30.18,WSW,240,4.0,15.0,87,0.00,,,0.00,Wunderground v.1.15,2013-12-10 22:48:00,
2013-12-10 16:52:00,14.0,10.8,30.17,WSW,253,4.0,15.0,87,0.00,,,0.00,Wunderground v.1.15,2013-12-10 22:52:00,
2013-12-10 16:56:00,13.9,11.0,30.17,WSW,241,4.0,15.0,88,0.00,,,0.00,Wunderground v.1.15,2013-12-10 22:56:00,
2013-12-10 16:58:00,13.9,11.0,30.17,SW,231,4.0,15.0,88,0.00,,,0.00,Wunderground v.1.15,2013-12-10 22:58:00,
2013-12-10 17:02:00,13.9,11.0,30.17,SW,226,4.0,15.0,88,0.00,,,0.00,Wunderground v.1.15,2013-12-10 23:02:00,
2013-12-10 17:04:00,13.9,11.3,30.17,SSW,203,4.0,15.0,89,0.00,,,0.00,Wunderground v.1.15,2013-12-10 23:04:00,
2013-12-10 17:06:00,13.9,11.3,30.17,SW,228,4.0,15.0,89,0.00,,,0.00,Wunderground v.1.15,2013-12-10 23:06:00,
2013-12-10 17:08:00,13.9,11.3,30.17,SW,227,4.0,15.0,89,0.00,,,0.00,Wunderground v.1.15,2013-12-10 23:08:00,
2013-12-10 17:12:00,13.9,11.3,30.16,SSW,207,4.0,15.0,89,0.00,,,0.00,Wunderground v.1.15,2013-12-10 23:12:00,
2013-12-10 17:14:00,13.9,11.3,30.16,SW,225,4.0,15.0,89,0.00,,,0.00,Wunderground v.1.15,2013-12-10 23:14:00,
2013-12-10 17:18:00,13.9,11.3,30.16,SW,228,3.0,15.0,89,0.00,,,0.00,Wunderground v.1.15,2013-12-10 23:18:00,
2013-12-10 17:20:00,13.9,11.3,30.17,SW,226,3.0,15.0,89,0.00,,,0.00,Wunderground v.1.15,2013-12-10 23:20:00,
2013-12-10 17:22:00,13.9,11.5,30.17,SW,225,3.0,15.0,90,0.00,,,0.00,Wunderground v.1.15,2013-12-10 23:22:00,
2013-12-10 17:26:00,14.0,11.6,30.17,SSW,212,4.0,15.0,90,0.00,,,0.00,Wunderground v.1.15,2013-12-10 23:26:00,
2013-12-10 17:28:00,14.0,11.6,30.17,SW,226,4.0,15.0,90,0.00,,,0.00,Wunderground v.1.15,2013-12-10 23:28:00,
2013-12-10 17:30:00,14.1,11.7,30.17,SW,231,4.0,4.0,90,0.00,,,0.00,Wunderground v.1.15,2013-12-10 23:30:00,
2013-12-10 17:34:00,14.1,11.7,30.17,SW,227,4.0,15.0,90,0.00,,,0.00,Wunderground v.1.15,2013-12-10 23:34:00,
2013-12-10 17:36:00,14.1,11.7,30.17,SW,232,4.0,15.0,90,0.00,,,0.00,Wunderground v.1.15,2013-12-10 23:36:00,
2013-12-10 17:38:00,14.2,11.8,30.17,SW,219,4.0,15.0,90,0.00,,,0.00,Wunderground v.1.15,2013-12-10 23:38:00,
2013-12-10 17:40:00,14.2,11.8,30.17,West,262,4.0,15.0,90,0.00,,,0.00,Wunderground v.1.15,2013-12-10 23:40:00,
2013-12-10 17:42:00,14.2,11.8,30.17,SW,219,4.0,15.0,90,0.00,,,0.00,Wunderground v.1.15,2013-12-10 23:42:00,
2013-12-10 17:44:00,14.2,12.1,30.17,SW,222,4.0,15.0,91,0.00,,,0.00,Wunderground v.1.15,2013-12-10 23:44:00,
2013-12-10 17:46:00,14.3,12.2,30.17,SSW,198,4.0,15.0,91,0.00,,,0.00,Wunderground v.1.15,2013-12-10 23:46:00,
2013-12-10 17:48:00,14.3,12.2,30.18,SW,222,4.0,15.0,91,0.00,,,0.00,Wunderground v.1.15,2013-12-10 23:48:00,
2013-12-10 17:52:00,14.3,12.2,30.18,SSW,195,4.0,15.0,91,0.00,,,0.00,Wunderground v.1.15,2013-12-10 23:52:00,
2013-12-10 17:54:00,14.3,12.2,30.18,SSW,210,3.0,15.0,91,0.00,,,0.00,Wunderground v.1.15,2013-12-10 23:54:00,
2013-12-10 17:56:00,14.4,12.3,30.18,South,190,3.0,15.0,91,0.00,,,0.00,Wunderground v.1.15,2013-12-10 23:56:00,
2013-12-10 17:58:00,14.4,12.3,30.18,SW,215,3.0,15.0,91,0.00,,,0.00,Wunderground v.1.15,2013-12-10 23:58:00,
2013-12-10 18:00:00,14.4,12.3,30.18,SSW,212,3.0,15.0,91,0.00,,,0.00,Wunderground v.1.15,2013-12-11 00:00:00,
2013-12-10 18:02:00,14.4,12.3,30.18,SW,226,3.0,15.0,91,0.00,,,0.00,Wunderground v.1.15,2013-12-11 00:02:00,
2013-12-10 18:06:00,14.4,12.3,30.18,SW,217,2.0,15.0,91,0.00,,,0.00,Wunderground v.1.15,2013-12-11 00:06:00,
2013-12-10 18:10:00,14.5,12.4,30.18,SSW,205,2.0,2.0,91,0.00,,,0.00,Wunderground v.1.15,2013-12-11 00:10:00,
2013-12-10 18:12:00,14.5,12.4,30.18,SSW,195,2.0,15.0,91,0.00,,,0.00,Wunderground v.1.15,2013-12-11 00:12:00,
2013-12-10 18:14:00,14.5,12.4,30.18,SSW,205,2.0,15.0,91,0.00,,,0.00,Wunderground v.1.15,2013-12-11 00:14:00,
2013-12-10 18:16:00,14.6,12.5,30.18,SW,219,2.0,15.0,91,0.00,,,0.00,Wunderground v.1.15,2013-12-11 00:16:00,
2013-12-10 18:18:00,14.6,12.5,30.18,South,188,2.0,15.0,91,0.00,,,0.00,Wunderground v.1.15,2013-12-11 00:18:00,
2013-12-10 18:20:00,14.6,12.5,30.18,SSE,155,2.0,15.0,91,0.00,,,0.00,Wunderground v.1.15,2013-12-11 00:20:00,
2013-12-10 18:22:00,14.6,12.5,30.18,SSW,198,3.0,15.0,91,0.00,,,0.00,Wunderground v.1.15,2013-12-11 00:22:00,
2013-12-10 18:26:00,14.6,12.5,30.18,SSW,205,2.0,15.0,91,0.00,,,0.00,Wunderground v.1.15,2013-12-11 00:26:00,
2013-12-10 18:28:00,14.7,12.6,30.18,WSW,240,2.0,15.0,91,0.00,,,0.00,Wunderground v.1.15,2013-12-11 00:28:00,
2013-12-10 18:32:00,14.7,12.6,30.18,SW,222,1.0,15.0,91,0.00,,,0.00,Wunderground v.1.15,2013-12-11 00:32:00,
2013-12-10 18:36:00,14.7,12.6,30.18,SE,139,1.0,15.0,91,0.00,,,0.00,Wunderground v.1.15,2013-12-11 00:36:00,
2013-12-10 18:38:00,14.7,12.6,30.18,SW,215,1.0,15.0,91,0.00,,,0.00,Wunderground v.1.15,2013-12-11 00:38:00,
2013-12-10 18:40:00,14.7,12.6,30.18,SE,137,1.0,15.0,91,0.00,,,0.00,Wunderground v.1.15,2013-12-11 00:40:00,
2013-12-10 18:42:00,14.7,12.6,30.18,SSE,162,1.0,15.0,91,0.00,,,0.00,Wunderground v.1.15,2013-12-11 00:42:00,
2013-12-10 18:44:00,14.8,12.6,30.18,SSW,192,1.0,15.0,91,0.00,,,0.00,Wunderground v.1.15,2013-12-11 00:44:00,
2013-12-10 18:46:00,14.8,12.6,30.18,SSW,212,1.0,15.0,91,0.00,,,0.00,Wunderground v.1.15,2013-12-11 00:46:00,
2013-12-10 18:48:00,14.8,12.6,30.18,SSW,195,1.0,15.0,91,0.00,,,0.00,Wunderground v.1.15,2013-12-11 00:48:00,
2013-12-10 18:52:00,14.8,12.6,30.18,SW,218,1.0,15.0,91,0.00,,,0.00,Wunderground v.1.15,2013-12-11 00:52:00,
2013-12-10 18:54:00,14.8,12.9,30.18,SW,228,1.0,15.0,92,0.00,,,0.00,Wunderground v.1.15,2013-12-11 00:54:00,
2013-12-10 18:58:00,14.8,12.9,30.18,SSW,201,1.0,15.0,92,0.00,,,0.00,Wunderground v.1.15,2013-12-11 00:58:00,
2013-12-10 19:00:00,14.8,12.9,30.18,SSW,201,1.0,1.0,92,0.00,,,0.00,Wunderground v.1.15,2013-12-11 01:00:00,
2013-12-10 19:04:00,14.8,12.9,30.18,SSW,205,1.0,15.0,92,0.00,,,0.00,Wunderground v.1.15,2013-12-11 01:04:00,
2013-12-10 19:06:00,14.8,12.9,30.18,SSW,205,0.0,15.0,92,0.00,,,0.00,Wunderground v.1.15,2013-12-11 01:06:00,
2013-12-10 19:08:00,14.8,12.9,30.18,SSW,205,0.0,15.0,92,0.00,,,0.00,Wunderground v.1.15,2013-12-11 01:08:00,
2013-12-10 19:10:00,14.9,13.0,30.18,SW,221,1.0,1.0,92,0.00,,,0.00,Wunderground v.1.15,2013-12-11 01:10:00,
2013-12-10 19:14:00,14.9,13.0,30.19,SSW,201,1.0,15.0,92,0.00,,,0.00,Wunderground v.1.15,2013-12-11 01:14:00,
2013-12-10 19:16:00,14.9,13.0,30.18,SSW,201,0.0,15.0,92,0.00,,,0.00,Wunderground v.1.15,2013-12-11 01:16:00,
2013-12-10 19:18:00,14.9,13.0,30.18,SSW,201,1.0,15.0,92,0.00,,,0.00,Wunderground v.1.15,2013-12-11 01:18:00,
2013-12-10 19:20:00,14.9,13.0,30.18,SSW,201,0.0,15.0,92,0.00,,,0.00,Wunderground v.1.15,2013-12-11 01:20:00,
2013-12-10 19:24:00,14.9,13.0,30.18,SSW,201,0.0,15.0,92,0.00,,,0.00,Wunderground v.1.15,2013-12-11 01:24:00,
2013-12-10 19:26:00,14.9,13.0,30.18,SSW,201,0.0,15.0,92,0.00,,,0.00,Wunderground v.1.15,2013-12-11 01:26:00,
2013-12-10 19:28:00,14.9,13.0,30.18,SSW,201,0.0,15.0,92,0.00,,,0.00,Wunderground v.1.15,2013-12-11 01:28:00,
2013-12-10 19:32:00,14.9,13.0,30.18,SSW,201,0.0,15.0,92,0.00,,,0.00,Wunderground v.1.15,2013-12-11 01:32:00,
2013-12-10 19:34:00,15.0,13.1,30.18,SSW,201,0.0,15.0,92,0.00,,,0.00,Wunderground v.1.15,2013-12-11 01:34:00,
2013-12-10 19:36:00,15.0,13.1,30.19,SW,229,0.0,15.0,92,0.00,,,0.00,Wunderground v.1.15,2013-12-11 01:36:00,
2013-12-10 19:40:00,15.0,13.1,30.19,SW,228,0.0,15.0,92,0.00,,,0.00,Wunderground v.1.15,2013-12-11 01:40:00,
2013-12-10 19:42:00,15.0,13.1,30.19,SW,228,0.0,15.0,92,0.00,,,0.00,Wunderground v.1.15,2013-12-11 01:42:00,
2013-12-10 19:44:00,15.0,13.1,30.18,SW,228,0.0,15.0,92,0.00,,,0.00,Wunderground v.1.15,2013-12-11 01:44:00,
2013-12-10 19:46:00,15.0,13.1,30.19,SW,227,0.0,15.0,92,0.00,,,0.00,Wunderground v.1.15,2013-12-11 01:46:00,
2013-12-10 19:50:00,15.1,13.2,30.18,SW,228,0.0,15.0,92,0.00,,,0.00,Wunderground v.1.15,2013-12-11 01:50:00,
2013-12-10 19:52:00,15.1,13.2,30.19,SW,228,0.0,15.0,92,0.00,,,0.00,Wunderground v.1.15,2013-12-11 01:52:00,
2013-12-10 19:54:00,15.1,13.2,30.19,SW,227,0.0,15.0,92,0.00,,,0.00,Wunderground v.1.15,2013-12-11 01:54:00,
2013-12-10 19:56:00,15.1,13.2,30.18,SW,227,0.0,15.0,92,0.00,,,0.00,Wunderground v.1.15,2013-12-11 01:56:00,
2013-12-10 20:00:00,15.1,13.2,30.18,SW,227,0.0,15.0,92,0.00,,,0.00,Wunderground v.1.15,2013-12-11 02:00:00,
2013-12-10 20:02:00,15.1,13.2,30.18,SW,228,0.0,15.0,92,0.00,,,0.00,Wunderground v.1.15,2013-12-11 02:02:00,
2013-12-10 20:04:00,15.2,13.3,30.19,SW,228,0.0,15.0,92,0.00,,,0.00,Wunderground v.1.15,2013-12-11 02:04:00,
2013-12-10 20:10:00,15.2,13.3,30.19,SW,227,0.0,15.0,92,0.00,,,0.00,Wunderground v.1.15,2013-12-11 02:10:00,
2013-12-10 20:12:00,15.2,13.3,30.19,SW,228,0.0,15.0,92,0.00,,,0.00,Wunderground v.1.15,2013-12-11 02:12:00,
2013-12-10 20:14:00,15.2,13.3,30.19,SW,228,0.0,15.0,92,0.00,,,0.00,Wunderground v.1.15,2013-12-11 02:14:00,
2013-12-10 20:16:00,15.2,13.3,30.19,SW,228,0.0,15.0,92,0.00,,,0.00,Wunderground v.1.15,2013-12-11 02:16:00,
2013-12-10 20:18:00,15.2,13.3,30.19,SW,227,0.0,15.0,92,0.00,,,0.00,Wunderground v.1.15,2013-12-11 02:18:00,
2013-12-10 20:20:00,15.2,13.3,30.19,SW,228,0.0,15.0,92,0.00,,,0.00,Wunderground v.1.15,2013-12-11 02:20:00,
2013-12-10 20:22:00,15.3,13.4,30.19,SW,228,0.0,15.0,92,0.00,,,0.00,Wunderground v.1.15,2013-12-11 02:22:00,
2013-12-10 20:26:00,15.3,13.4,30.19,SW,228,0.0,15.0,92,0.00,,,0.00,Wunderground v.1.15,2013-12-11 02:26:00,
2013-12-10 20:28:00,15.3,13.4,30.20,SSW,211,0.0,15.0,92,0.00,,,0.00,Wunderground v.1.15,2013-12-11 02:28:00,
2013-12-10 20:30:00,15.3,13.4,30.20,SSW,211,0.0,15.0,92,0.00,,,0.00,Wunderground v.1.15,2013-12-11 02:30:00,
2013-12-10 20:32:00,15.3,13.4,30.20,SSW,211,0.0,15.0,92,0.00,,,0.00,Wunderground v.1.15,2013-12-11 02:32:00,
2013-12-10 20:34:00,15.3,13.4,30.20,SSW,211,0.0,15.0,92,0.00,,,0.00,Wunderground v.1.15,2013-12-11 02:34:00,
2013-12-10 20:38:00,15.4,13.5,30.20,SSW,211,0.0,15.0,92,0.00,,,0.00,Wunderground v.1.15,2013-12-11 02:38:00,
2013-12-10 20:40:00,15.4,13.5,30.20,SSW,211,0.0,15.0,92,0.00,,,0.00,Wunderground v.1.15,2013-12-11 02:40:00,
2013-12-10 20:42:00,15.4,13.5,30.20,SSW,211,0.0,15.0,92,0.00,,,0.00,Wunderground v.1.15,2013-12-11 02:42:00,
2013-12-10 20:48:00,15.4,13.7,30.20,SSW,211,0.0,15.0,93,0.00,,,0.00,Wunderground v.1.15,2013-12-11 02:48:00,
2013-12-10 20:52:00,15.5,13.8,30.20,SSW,211,0.0,15.0,93,0.00,,,0.00,Wunderground v.1.15,2013-12-11 02:52:00,
2013-12-10 20:54:00,15.5,13.8,30.20,South,190,0.0,15.0,93,0.00,,,0.00,Wunderground v.1.15,2013-12-11 02:54:00,
2013-12-10 20:56:00,15.5,13.8,30.20,South,190,0.0,15.0,93,0.00,,,0.00,Wunderground v.1.15,2013-12-11 02:56:00,
2013-12-10 21:00:00,15.5,13.8,30.21,SSW,211,0.0,15.0,93,0.00,,,0.00,Wunderground v.1.15,2013-12-11 03:00:00,
2013-12-10 21:02:00,15.6,13.9,30.21,SW,233,0.0,15.0,93,0.00,,,0.00,Wunderground v.1.15,2013-12-11 03:02:00,
2013-12-10 21:04:00,15.6,13.9,30.21,SSW,212,0.0,15.0,93,0.00,,,0.00,Wunderground v.1.15,2013-12-11 03:04:00,
2013-12-10 21:08:00,15.6,13.9,30.21,SW,228,1.0,15.0,93,0.00,,,0.00,Wunderground v.1.15,2013-12-11 03:08:00,
2013-12-10 21:10:00,15.7,14.0,30.21,WSW,242,1.0,1.0,93,0.00,,,0.00,Wunderground v.1.15,2013-12-11 03:10:00,
2013-12-10 21:12:00,15.7,14.0,30.21,WSW,242,1.0,15.0,93,0.00,,,0.00,Wunderground v.1.15,2013-12-11 03:12:00,
2013-12-10 21:14:00,15.7,14.0,30.21,SW,228,1.0,15.0,93,0.00,,,0.00,Wunderground v.1.15,2013-12-11 03:14:00,
2013-12-10 21:18:00,15.8,14.1,30.21,SW,232,0.0,15.0,93,0.00,,,0.00,Wunderground v.1.15,2013-12-11 03:18:00,
2013-12-10 21:20:00,15.8,14.1,30.22,SW,231,0.0,15.0,93,0.00,,,0.00,Wunderground v.1.15,2013-12-11 03:20:00,
2013-12-10 21:24:00,15.8,14.1,30.22,SW,231,0.0,15.0,93,0.00,,,0.00,Wunderground v.1.15,2013-12-11 03:24:00,
2013-12-10 21:26:00,15.8,14.1,30.22,SW,231,0.0,15.0,93,0.00,,,0.00,Wunderground v.1.15,2013-12-11 03:26:00,
2013-12-10 21:28:00,15.8,14.1,30.22,SW,232,0.0,15.0,93,0.00,,,0.00,Wunderground v.1.15,2013-12-11 03:28:00,
2013-12-10 21:30:00,15.8,14.1,30.22,SW,231,0.0,15.0,93,0.00,,,0.00,Wunderground v.1.15,2013-12-11 03:30:00,
2013-12-10 21:32:00,15.8,14.1,30.22,SW,232,0.0,15.0,93,0.00,,,0.00,Wunderground v.1.15,2013-12-11 03:32:00,
2013-12-10 21:36:00,15.9,14.2,30.22,SW,232,0.0,15.0,93,0.00,,,0.00,Wunderground v.1.15,2013-12-11 03:36:00,
2013-12-10 21:38:00,15.9,14.2,30.22,SW,232,0.0,15.0,93,0.00,,,0.00,Wunderground v.1.15,2013-12-11 03:38:00,
2013-12-10 21:40:00,15.9,14.2,30.22,SW,232,0.0,15.0,93,0.00,,,0.00,Wunderground v.1.15,2013-12-11 03:40:00,
2013-12-10 21:42:00,15.8,14.1,30.22,SW,232,0.0,15.0,93,0.00,,,0.00,Wunderground v.1.15,2013-12-11 03:42:00,
2013-12-10 21:44:00,15.8,14.1,30.22,SW,232,0.0,15.0,93,0.00,,,0.00,Wunderground v.1.15,2013-12-11 03:44:00,
2013-12-10 21:48:00,15.9,14.2,30.22,SW,232,0.0,15.0,93,0.00,,,0.00,Wunderground v.1.15,2013-12-11 03:48:00,
2013-12-10 21:52:00,15.8,14.1,30.22,SW,232,0.0,15.0,93,0.00,,,0.00,Wunderground v.1.15,2013-12-11 03:52:00,
2013-12-10 21:54:00,15.9,14.2,30.22,SW,232,0.0,15.0,93,0.00,,,0.00,Wunderground v.1.15,2013-12-11 03:54:00,
2013-12-10 21:56:00,15.9,14.2,30.22,NNE,30,0.0,15.0,93,0.00,,,0.00,Wunderground v.1.15,2013-12-11 03:56:00,
2013-12-10 21:58:00,15.9,14.2,30.22,NNE,30,0.0,15.0,93,0.00,,,0.00,Wunderground v.1.15,2013-12-11 03:58:00,
2013-12-10 22:02:00,15.8,14.1,30.22,NNE,30,1.0,15.0,93,0.00,,,0.00,Wunderground v.1.15,2013-12-11 04:02:00,
2013-12-10 22:08:00,15.8,14.1,30.23,NNE,31,1.0,15.0,93,0.00,,,0.00,Wunderground v.1.15,2013-12-11 04:08:00,
2013-12-10 22:10:00,15.7,14.0,30.23,NNE,32,1.0,15.0,93,0.00,,,0.00,Wunderground v.1.15,2013-12-11 04:10:00,
2013-12-10 22:12:00,15.7,14.0,30.23,North,9,1.0,15.0,93,0.00,,,0.00,Wunderground v.1.15,2013-12-11 04:12:00,
2013-12-10 22:14:00,15.6,13.9,30.23,NNE,15,2.0,15.0,93,0.00,,,0.00,Wunderground v.1.15,2013-12-11 04:14:00,
2013-12-10 22:18:00,15.6,13.9,30.23,North,11,2.0,15.0,93,0.00,,,0.00,Wunderground v.1.15,2013-12-11 04:18:00,
2013-12-10 22:22:00,15.6,13.9,30.24,NNE,23,2.0,15.0,93,0.00,,,0.00,Wunderground v.1.15,2013-12-11 04:22:00,
2013-12-10 22:24:00,15.6,13.9,30.24,NNE,13,3.0,15.0,93,0.00,,,0.00,Wunderground v.1.15,2013-12-11 04:24:00,
2013-12-10 22:25:00,15.5,13.8,30.24,North,11,3.0,15.0,93,0.00,,,0.00,Wunderground v.1.15,2013-12-11 04:25:00,
2013-12-10 22:30:00,15.5,13.8,30.24,NE,39,3.0,3.0,93,0.00,,,0.00,Wunderground v.1.15,2013-12-11 04:30:00,
2013-12-10 22:32:00,15.5,13.8,30.25,NNE,20,3.0,15.0,93,0.00,,,0.00,Wunderground v.1.15,2013-12-11 04:32:00,
2013-12-10 22:34:00,15.5,13.8,30.25,North,5,3.0,15.0,93,0.00,,,0.00,Wunderground v.1.15,2013-12-11 04:34:00,
2013-12-10 22:38:00,15.4,13.7,30.25,North,360,2.0,15.0,93,0.00,,,0.00,Wunderground v.1.15,2013-12-11 04:38:00,
2013-12-10 22:40:00,15.4,13.7,30.25,NE,35,2.0,2.0,93,0.00,,,0.00,Wunderground v.1.15,2013-12-11 04:40:00,
2013-12-10 22:42:00,15.4,13.5,30.25,North,6,2.0,15.0,92,0.00,,,0.00,Wunderground v.1.15,2013-12-11 04:42:00,
2013-12-10 22:46:00,15.4,13.5,30.25,North,352,2.0,15.0,92,0.00,,,0.00,Wunderground v.1.15,2013-12-11 04:46:00,
2013-12-10 22:52:00,15.2,13.3,30.26,NNE,14,2.0,15.0,92,0.00,,,0.00,Wunderground v.1.15,2013-12-11 04:52:00,
2013-12-10 22:54:00,15.2,13.3,30.26,North,356,2.0,15.0,92,0.00,,,0.00,Wunderground v.1.15,2013-12-11 04:54:00,
2013-12-10 23:00:00,15.2,13.3,30.26,North,1,2.0,15.0,92,0.00,,,0.00,Wunderground v.1.15,2013-12-11 05:00:00,
2013-12-10 23:02:00,15.1,13.2,30.26,NNW,346,2.0,15.0,92,0.00,,,0.00,Wunderground v.1.15,2013-12-11 05:02:00,
2013-12-10 23:04:00,15.1,13.2,30.27,NNW,338,2.0,15.0,92,0.00,,,0.00,Wunderground v.1.15,2013-12-11 05:04:00,
2013-12-10 23:06:00,15.1,13.2,30.27,NNW,346,3.0,15.0,92,0.00,,,0.00,Wunderground v.1.15,2013-12-11 05:06:00,
2013-12-10 23:10:00,15.1,13.2,30.27,North,354,3.0,3.0,92,0.00,,,0.00,Wunderground v.1.15,2013-12-11 05:10:00,
2013-12-10 23:12:00,15.1,13.2,30.27,North,1,3.0,15.0,92,0.00,,,0.00,Wunderground v.1.15,2013-12-11 05:12:00,
2013-12-10 23:16:00,15.1,13.2,30.27,NNW,339,2.0,15.0,92,0.00,,,0.00,Wunderground v.1.15,2013-12-11 05:16:00,
2013-12-10 23:18:00,15.1,13.2,30.27,NNW,340,2.0,15.0,92,0.00,,,0.00,Wunderground v.1.15,2013-12-11 05:18:00,
2013-12-10 23:20:00,15.1,13.2,30.28,NNW,333,2.0,2.0,92,0.00,,,0.00,Wunderground v.1.15,2013-12-11 05:20:00,
2013-12-10 23:26:00,15.1,13.2,30.28,NNW,340,2.0,15.0,92,0.00,,,0.00,Wunderground v.1.15,2013-12-11 05:26:00,
2013-12-10 23:28:00,15.1,13.2,30.28,NNW,332,2.0,15.0,92,0.00,,,0.00,Wunderground v.1.15,2013-12-11 05:28:00,
2013-12-10 23:30:00,15.1,13.2,30.28,NW,325,2.0,15.0,92,0.00,,,0.00,Wunderground v.1.15,2013-12-11 05:30:00,
2013-12-10 23:32:00,15.1,13.2,30.28,NW,321,2.0,15.0,92,0.00,,,0.00,Wunderground v.1.15,2013-12-11 05:32:00,
2013-12-10 23:34:00,15.1,13.2,30.28,NNW,347,2.0,15.0,92,0.00,,,0.00,Wunderground v.1.15,2013-12-11 05:34:00,
2013-12-10 23:38:00,15.1,13.2,30.28,NNW,346,3.0,15.0,92,0.00,,,0.00,Wunderground v.1.15,2013-12-11 05:38:00,
2013-12-10 23:40:00,15.1,13.2,30.28,NW,316,3.0,3.0,92,0.00,,,0.00,Wunderground v.1.15,2013-12-11 05:40:00,
2013-12-10 23:44:00,15.2,13.3,30.29,NNW,333,3.0,15.0,92,0.00,,,0.00,Wunderground v.1.15,2013-12-11 05:44:00,
2013-12-10 23:46:00,15.2,13.3,30.29,NW,324,4.0,15.0,92,0.00,,,0.00,Wunderground v.1.15,2013-12-11 05:46:00,
2013-12-10 23:50:00,15.2,13.3,30.29,NNW,345,4.0,15.0,92,0.00,,,0.00,Wunderground v.1.15,2013-12-11 05:50:00,
2013-12-10 23:54:00,15.2,13.3,30.29,NNW,328,4.0,15.0,92,0.00,,,0.00,Wunderground v.1.15,2013-12-11 05:54:00,
2013-12-10 23:56:00,15.2,13.3,30.30,WNW,295,4.0,15.0,92,0.00,,,0.00,Wunderground v.1.15,2013-12-11 05:56:00,
2013-12-10 23:58:00,15.1,13.2,30.30,NW,323,4.0,15.0,92,0.00,,,0.00,Wunderground v.1.15,2013-12-11 05:58:00,